[Date Prev][Date Next][Thread Prev][Thread Next][Date Index][Thread Index]

[jamsat-news:1293] jas2info #194



========================   最新情報   ==============================

        Last updated :Sat.24-Jul.-2000  16:30 (JST) #194
====================================================================
   
  1)アマチュア通信衛星情報 FOシリーズの軌道要素、テレメトリ、
   QSOの状況等をまとめてみました.
   
   FO−29の6月30日(金)のテレメトリはJARLのホームページの
  運用予定のとうり11:27(JST)のパスではアナログ運用でした。
  これまでの受信したCWテレメトリを掲載しておきます.  

  AS!19105C1  30JUN2000
  12:19-12:36(JST)
  Freq.435.803-.787MHz
                                  76 89 7B 72 41 94 91 B9 7C BC BB BC BB B8 
 HI HI AE C7 88 55 1D 51 1A 9D 01 76    61 82 60 93 90 9F 7A BC BB BC BB B9 
 HI HI AE C7 88 55 1D 51 1A 0D 01 76 83 57 83 60 95 93 B1 7C BC BB BC BB B9 
 HI HI AE 07 88 55 1D 51 1A 0D 01 76 7C 75 89 43 94 91 B1 6C BC BB BC BB B8 
 HI HI AE 07 88 55 1D 51 1A 0D 01 76 58 44 7C 61 94 91 B0 5D BC BB BC BB B9 
 HI HI AE C7 88 55 1D 51 1A 0D 01 76 93 5B 79 61 93 91 B0 77 BC BB BC BB B9 
 HI HI AE 07 88 55 1D 51 1A 0D 01 76 70 70 7C 46 94 92 B1 73 BC BA BC BB B9 
 HI HI AE O7 86 55 1D 51 1A 0D 01 76 88    76 4D 94 92 A1 7E BC BA BC BB B9 
 HI HI AE C7 88 55 1D 51 1A 0D 01 76 94 62 7B 60 92 90 9F 5B BB BA BB BB B9 
 HI HI AE C7 88 55 1D 51 1A 0D 01 76 69 65 6D 60 93 91 B0 B8 BB BA BB BA B9 
 HI HI AE C7 88 55 1D 51 1A 0D 01 76 7E 3D 83 43 94 92 B0 87 BB BA BB BA B9 
 HI HI AE 07 88 55 1D 51 1A 0D 01 66 7F 71 82 60 92 90 9F 8C BB BA BB BA B9 
 HI HI AE C7 88 55 1D 51 1A 0D 01 76 65 5E 6D 60 93 91 B0 88 BB BA BB BA B9 
 HI HI AE 07 88 55 1D 51 1A 0D 01 76 8E 42 6B 60 94 93 B0 85 BB BA BB BA B9 
 HI HI AE C7 88 55 1D 51 1A 0D 01 76 84 8  71 60 93 91 B0 8E BB BA BB BA B9 
 HI HI AE 07 88 55 1D 51 1A 0D 01 76 62 50 85 60 92 91 9F 86 BB BA BB BA B9 
 HI HI AE C7 88 55 1D 51 1A 0D 01 76 9C 4F 82 61 94 91 B0 76 BB B9 BB BA B9   
 HI HI AE C7 88 55 1D 51 1A 0D 01 76 75 90 69 60 93 91 B0 64 BB B9 BA BA B9 
 HI HI AE C7 88 55 1D 51 1A 0D 01 76 64 40 86 60 92 91 B0 7B BB B9 BA BA B9  
 HI HI AE C7 88 55 1D 51 1A 0D 01 76 A5 65 7A 47 96 92 B0 6B BB B9 BA BA B9 
 HI HI AE C7 88 55 1D 51 1A 0D 01 76 9O 71 63 60 94 91 B0 80 BB B9 BA BA B9 
 HI HI AE C7 88 55 1D 51 1A 0D 01 76 78 2C 7A 60 93 91 B1 6E BA B9 BA BA B9 
 HI HI AE C7 88 55 1D 51 1A 0D 01 76 9C 90 71 60 93 91 B0 70 BA B8 BA BA B9 
 HI HI AE C7 88 55 1D 51 1A 0D 01 76 45 7A 89 60 93 91 B0 75 BA B8 BA BA B9 
 
  AS19091C1  29JUN2000
  11:27-11:45(JST)

 HI HI AE C7 88 55 1D 51 1A 0D 01 76 46 79 86 60 95 93 B0 75 BF BC BE C0 BB 
 HI HI AE 07 88 55 1D 51 1A 0D 01 76 8E 59 85 61 94 91 B0 7D BF BC BE BF BB 
 HI HI AE C7 88 55 1D 51 1A 0D 01 76 4E 6C 87 60 93 90 B0 6F BF BC BE C0 BB 
 HI HI AE C7 88 55 1D 51 1A 0D 01 76 64 6B 87 60 92 92 A1 82 BF BC BE C0 BB 
 HI HI AE C7 88 55 1D 51 1A 0D 01 76 79 46 83 46 96 92 B1 85 BF BC BE BF BB  
 HI HI AE C7 88 55 1D 51 1A 0D 01 76 40 6E 80 48 96 92 B0 84 BF BC BE BF BB 
 HI HI AE 07 88 55 1D 51 1A 0D 01 76 78 58 7D 48 95 92 B0 81 BF BB BE BF BB 
 HI HI AE 07 88 55 1D 51 1A 0D 01 76 53 43 84 60 95 93 B0 8D BF BB BE BF BB 
 HI HI AE C7 88 55 1D 51 1A 0D 01 76 51 71 81 60 92 91 A0 85 BF BB BE BF BB 
 HI HI AE C7 88 55 1D 51 1A 0D 01 76 71 4E 71 60 92 91 B0 91 BF BB BE BF BB 
 HI HI AE C7 88 55 1D 51 1A 0D 01 76 41 53 6C 4D 94 92 B0 8D BE BB BD BF BB 
 HI HI AE C7 88 55 1D 51 1A 0D 01 76 63 6A 74 60 93 90 B0 6B BE BB BE BF BB 
 HI HI AE C7 88 55 1D 51 1A 0D 01 76 5A 3C 86 61 94 91 B0 78 BE BB BD BF BB 
 HI HI AE 07 88 55 1D 51 1A 0D 01 76 42 6B 82 60 93 91 B0 8E BE BA BD BF BC 
 HI HI AE C7 88 55 1D 51 1A 0D 01 76 6D 59 75 4D 94 92 B0 85 BE BA BD BE BB 
 HI HI AE C7 88 55 1D 51 1A 0D 01 76 41 45 78 60 93 91 B0 85 BE BA BD BE BB 
 HI HI AE 07 88 55 1D 51 1A 0D 01 76 56 7B 79 60 92 90 9F A9 BE BA BD BE BC 
 HI HI AE C7 88 55 1D 51 1A 0D 01 76 66 3E 99 60 92 92 B0 A0 BE BA BD BE BB 
 HI HI AE C7 88 55 1D 51 1A 0D 01 76 37 67 81 61 93 9  E0 78 BD BA BD BE BC 
 HI HI AE C7 88 55 1D 51 1A 0D 01 76 43 72 80 60 93 91 B0 76 BD BA BD BE BC 
 HI HI AE C7 88 55 1D 51 1A 0D 01 76 4A 34 82 60 93 91 B2 65 BD BA BD BE BC 
 HI HI AE C7 88 55 1D 51 1A 0D 01 76 49 8D 85 60 93 91 B0 82 BD BA BD BE BC 
 HI HI AE C7 88 55 1D 51 1A 0D 01 76 7C 49 91 60 93 91 B0 85 BD BA BD BE BC 
  
 ------------------------ FO-29の軌道要素 ------------------------------        
 
  ■ 軌道要素1:「jamsat−keps:1007」より         
          SB KEPS @ AMSAT  $ORB00182.N
          2Line Orbital Elements 00182.AMSAT

 HR AMSAT ORBITAL ELEMENTS FOR AMATEUR SATELLITES IN NASA FORMAT
 FROM WA5QGD FORT WORTH,TX June 30, 2000
 SEND SUBSCRIBE/UNSUBSCRIBE TO majordomo@amsat.org ONLY
 BID: ORB00182.N

  DECODE 2-LINE ELSETS WITH THE FOLLOWING KEY:
  1 AAAAAU 00  0  0 BBBBB.BBBBBBBB  .CCCCCCCC  00000-0  00000-0 0  DDDZ
  2 AAAAA EEE.EEEE FFF.FFFF GGGGGGG HHH.HHHH III.IIII JJ.JJJJJJJJKKKKKZ
  KEY: A-CATALOGNUM B-EPOCHTIME C-DECAY D-ELSETNUM E-INCLINATION F-RAAN
  G-ECCENTRICITY H-ARGPERIGEE I-MNANOM J-MNMOTION K-ORBITNUM Z-CHECKSUM
  TO ALL RADIO AMATEURS BT

 FO-29
 1 24278U 96046B   00180.80559387 -.00000001  00000-0  35376-4 0 03727
 2 24278 098.5874 087.1366 0350903 196.8057 162.1213 13.52725948190869

 ■ 軌道要素2:「jamsat−keps:1008」より                    
         SB KEPS @ AMSAT  $ORB00182.O
         Orbital Elements  00182.OSCAR

 HR AMSAT ORBITAL ELEMENTS FOR OSCAR SATELLITES
 FROM WA5QGD FORT WORTH,TX June 30, 2000
 SEND SUBSCRIBE/UNSUBSCRIBE TO majordomo@amsat.org ONLY
 BID: ORB00182.O
 TO ALL RADIO AMATEURS BT
 
  Satellite: FO-29
 Catalog number: 24278
 Epoch time:      00180.80559387
 Element set:    0372
 Inclination:      098.5874 deg
 RA of node:       087.1366 deg
 Eccentricity:    0.0350903
 Arg of perigee:   196.8057 deg
 Mean anomaly:     162.1213 deg
 Mean motion:   13.52725948 rev/day
 Decay rate:       -1.0e-08 rev/day^2
 Epoch rev:           19086
  Checksum:              328

-------------------  FO-29(JAS-2)のテレメトリに関する情報  ----------------------
 
 2)6月30日(金)のテレメトリの最後の行の変換例です.

  AS19105C1  30JUN2000
  12:19-12:36(JST)
  Freq.435.803-.787MHz
                     
 HI HI AE C7 88 55 1D 51 1A 0D 01 76 45 7A 89 60 93 91 B0 75 BA B8 BA BA B9 
  
 テレメトリ  	内   容	    	換算値	単 位  
 3C	磁気センサーZ軸=	33823.5	[nT]
 3D	磁気センサX軸	=	59803.9	[nT]
 4A	太陽電池発生電流=	 1343.1	[mA]
 4B	B充放電電流	=	 -118.4	[mA]
 4C	B端子電圧	=	   15.8	[V]
 4D	B中間端子電圧	=	    7.0	[V]
 5A	バス電圧 	=	   17.3	[V]
 5B	JTA送信電力	=	  662.4	[mW]
 5C 	構体温度1	=	    9.6	[℃]
 5D	構体温度2	=	   10.4	[℃]
 6A	構体温度3	=	    9.6	[℃]
 6B	構体温度4	=	    9.6	[℃]
 6C	Bセル温度	=	   10.0	[℃]

 * OSはWindows 2000,Office 2000 にて計算処理.
 
 ===========================  FO-29(ふじ3号)のQSO情報等 ======================
   
 3) [jamsat-bb:5402] ORB00182.N -> ORB00182.N99 にて 7N1JVW局の 藤田 忠義氏が
   投稿されてましたのでJASシリーズのみ転載させて頂きました.
  
FA7T-FJT> Subject: [jamsat-bb:5402] ORB00182.N -> ORB00182.N99
FA7T-FJT>   [jamsat-keps:1007] 配送の軌道要素の元期部分 "2000年" を 
FA7T-FJT>   "1999年" の通日加算と見なし、書き換えました。
FA7T-FJT> 
FA7T-FJT>                                  2000/6/30
FA7T-FJT>                                   7N1JVW 藤田忠義  横浜市緑区
FA7T-FJT>                                     E-mail: FA7T-FJT@asahi-net.or.jp 
FA7T-FJT> 
FA7T-FJT> 
FA7T-FJT> 首記方法による軌道要素書換えのリクエストがありましたのでアップします。
FA7T-FJT> 
FA7T-FJT> この軌道要素書き換えの目的は、QT98 Ver4.J など元期の整数部分が"2000年" に
FA7T-FJT> 対応していないソフトウエアで、"1999年" の通日加算と見なせば使用可能な位置
FA7T-FJT> 予報計算ソフトのためにおこないました。
FA7T-FJT> 
FA7T-FJT>        ***** 元期整数部分の書換え要旨 *****
FA7T-FJT> 
FA7T-FJT>  例えば 00020.***(2000年の通日20)は、99365.***(1999年最後の日)に
FA7T-FJT>  "20" を加え 99385.***とみなす。
FA7T-FJT> 
FA7T-FJT> 
FA7T-FJT> 各行末尾(行の右端)にあるチェックサムは、書き換えをしていません。
FA7T-FJT> なお書換え軌道要素を使用した計算結果の確認は、数個の衛星をソフトウエアQT98
FA7T-FJT>  Ver4.J でのみおこなっています。

FA7T-FJT> FO-20
FA7T-FJT> 1 20480U 90013C   99533.36847592 -.00000030  00000-0 -10879-5 0  2332
FA7T-FJT> 2 20480  99.0534 298.9244 0541059  57.1092 308.0876 12.83274387485174
FA7T-FJT> FO-29
FA7T-FJT> 1 24278U 96046B   99534.11889132  .00000023  00000-0  61790-4 0  3375
FA7T-FJT> 2 24278  98.5879  76.9850 0350437 227.0949 130.0301 13.52725019189282
   
 ===============================================================================
   4)JARL のホームページに運用予定が記載されていましたのでご紹介します.
       ( http://www.jarl.or.jp/Japanese/3_Fuji/new/uy.htm )

        ■ ふじ3号/FOー29/JAS-2 ■  
   
     *** 運用予定について ***

 ☆☆ 待望のデジトーカ運用を5日間運用開始 ☆☆
  
    6月13日 〜 7月02日  アナログ系運用 

  *なお,運用予定は都合により変更することがありますのでご了承願います。

 照会先 : lab@jarl.or.jp

 最新の情報はテレホンサービス(03−3942−1000)をお聞きください。  
 以後の運用につきましては6月下旬にお知らせいたします。

-----------------------    FO−20(JAS-1b)道要素   -------------------------
  5)
  ■ 軌道要素1 :出典はFO-29「ふじ3号」に同じ.
  
  FO-20
 1 20480U 90013C   00181.23201702  .00000037  00000-0  15277-3 0  2363
 2 20480  99.0548 309.3785 0541169  28.0070 334.9087 12.83275114486825
 
  ■ 軌道要素2 :出典はFO−29「ふじ3号」に同じ.
               
  Satellite: FO-20
 Catalog number: 20480
 Epoch time:      00181.23201702
 Element set:     236
 Inclination:       99.0548 deg
 RA of node:       309.3785 deg
 Eccentricity:    0.0541169
 Arg of perigee:    28.0070 deg
 Mean anomaly:     334.9087 deg
 Mean motion:   12.83275114 rev/day
 Decay rate:        3.7e-07 rev/day^2
 Epoch rev:           48682
 Checksum:              284

 --------------------------------------------------------------------------------
 
         ■ ふじ2号/FO−20/JAS-1b ■      
            
          「ふじ2号」 現況                                                                                  
             
   JAS-1b(ふじ2号)のCWテレメトリ信号に,1997年10月12日12時(JST)の
 日本上空通過時,3桁の数字が繰り返されるはずが3個の長音の繰り返しとなっているという
 異常が発見されました。この不具合は次の通過時からは回復していましたが13日15時20分の
 通過時に再び観測されました。現在はA0の送信が続いています。衛星のアナログ系中継モード
 動作は異常が無く,正常時のテレメトリ内容からは衛星の動作に異常は認められません。従って,
 直ちに衛星のミッションに影響することは無いと予想されますので,当面はアナログ系中継
 モードを継続します。衛星は既に打ち上げてから7年8ヶ月を経ておりますので,今後は監視を
 強化する予定です。アマチュア各位のレポートをお待ちします。
 -------------------------------------------------------------------------------- 
  1997年10月14日 00時35分 確認のテレメトリ音 151 KB (A0) 
  1997年10月14日 11時10分 確認のテレメトリ音 216 KB (異常キーイング) 

  以上 JARLのホ−ムページの http://www.jarl.or.jp/Japanese/3_Fuji/new/fuji.htm

===================== FO-20 ふじ2号 のテレメトリ観測結果 ====================

   6月3日(土)の14:15(JST)のパスの観測結果では以前観測した結果よりも変動のない
 単一周波数でドップラー効果で周波数がずれていくのみの状態に戻っておりました。
                                         
   =============   JAS-2 (ふじ3号)と現在までの情報   ===========
  
  A.電話によるふじ3号の運用情報
      社団法人日本アマチュア連盟によるサービス
           TEL .   03− 3942 − 1000
  B.アマチュア無線FAXサービス
      JARLによるふじ3号の軌道情報(オービットカレンダー)
         FAX No.  03− 3233 −0055
  C.WWWブラウザで情報を簡単に見れる人のためにJAS−2
     ふじ3号の衛星としての運用されるまでの名前)の概要、打ち上げ
     までの状況、運用中における状況を説明したホームページを紹介し
     ておきます.
     社団法人日本アマチュア無線連盟(JARL)のホームページ

          http://www.jarl.or.jp/Japanese/3_Fuji/jasmenu.htm
 
     宇宙開発事業団(NASDA)ホームページ 
          http://www.nasda.go.jp/
         打上げ衛星 :地球観測プラットフォーム技術衛星(ADEOS) 
                       アマチュア衛星3号(JAS-2)
          http://yyy.tksc.nasda.go.jp/Home/Press/Press-j/jas-2_j.html        

  D.JAMSATによる軌道情報の活用
        JAMSATのホームページまたはjamsat−kepsの軌道要素より
      衛星の軌道情報を得る.
     JAMSATホームページ
               URL    http://www.jamsat.or.jp
       上記ホームページでは各地で行われるアマチュア通信衛星に関する
      ミューティングのお知らせや世界のアマチュア衛星に関する情報が
      満載されています.
 ========================================================================  
     JAMSATのメンバーのご協力によりJH6MME(高山 秀造)が
    執筆・編集を担当しております.ご指摘の意見、疑問やこのようにしたら
    というアイデアがありましたら小さなことでもかまいませんので気軽に下
    記アドレスまでご連絡ください.jamsat−newsからjas2
    infoへの転載をJH4PHW局坂井さんに担当して頂いております.  
                  E-mail : jh6mme@jamsat.or.jp : jh4phw@jamsat.or.jp
 ===============================   END  ===============================